WD7OO Weather Reports


time (UTC)temp
C
wind
direction
speed
KPH
gust
KPH
rain 1hr
cm
rain 24hr
cm
rain mn
cm
humidity
%
barometer
mb
20260509043705 11 341 0.0 0.0 0.00 0.00 0.00 91 1007.4
20260509043201 11 341 0.0 0.0 0.00 0.00 0.00 91 1007.4
20260509042657 11 341 0.0 0.0 0.00 0.00 0.00 91 1007.6
20260509042153 11 342 0.0 1.6 0.00 0.00 0.00 91 1007.6
20260509041650 11 341 0.0 0.0 0.00 0.00 0.00 91 1007.4
20260509041148 11 341 0.0 0.0 0.00 0.00 0.00 91 1007.5
20260509040646 11 341 0.0 1.6 0.00 0.00 0.00 91 1007.5
20260509040143 11 341 0.0 0.0 0.00 0.00 0.00 91 1007.6
20260509035639 11 341 0.0 0.0 0.00 0.03 0.03 91 1007.6
20260509035136 11 341 0.0 0.0 0.00 0.03 0.03 91 1007.7
20260509034634 12 341 0.0 0.0 0.00 0.03 0.03 91 1007.6
20260509034131 12 341 0.0 0.0 0.00 0.03 0.03 91 1007.8
20260509033628 12 340 0.0 1.6 0.00 0.03 0.03 91 1007.7
20260509033125 12 341 0.0 0.0 0.00 0.03 0.03 91 1007.7
20260509032622 12 341 0.0 0.0 0.00 0.03 0.03 90 1007.9
20260509032119 12 341 0.0 0.0 0.00 0.03 0.03 90 1007.9
20260509031617 12 341 0.0 0.0 0.00 0.03 0.03 90 1008.0
20260509031114 12 339 0.0 0.0 0.00 0.03 0.03 90 1007.9
20260509030612 12 336 0.0 0.0 0.00 0.03 0.03 90 1007.8
20260509030109 12 331 0.0 0.0 0.00 0.03 0.03 90 1007.7
20260509025605 12 330 0.0 1.6 0.00 0.03 0.03 90 1007.9
20260509025100 12 336 0.0 1.6 0.00 0.03 0.03 91 1007.9
20260509024556 12 310 0.0 0.0 0.00 0.03 0.03 92 1008.0
20260509024052 12 317 0.0 1.6 0.00 0.03 0.03 93 1008.1
20260509023550 12 287 0.0 0.0 0.00 0.03 0.03 93 1008.0
20260509023047 11 258 0.0 0.0 0.00 0.03 0.03 93 1008.1
20260509022543 11 258 0.0 0.0 0.00 0.03 0.03 93 1007.9
20260509022042 11 258 0.0 0.0 0.00 0.03 0.03 93 1007.9
20260509021538 11 258 0.0 0.0 0.00 0.03 0.03 92 1008.0
20260509021035 11 258 0.0 0.0 0.00 0.03 0.03 92 1008.0
20260509020534 11 258 0.0 0.0 0.00 0.03 0.03 92 1007.9
20260509020030 11 258 0.0 0.0 0.00 0.03 0.03 92 1008.0
20260509015529 11 258 0.0 0.0 0.00 0.03 0.03 92 1008.1
20260509015026 12 258 0.0 0.0 0.00 0.03 0.03 91 1008.1
20260509014523 11 258 0.0 0.0 0.00 0.03 0.03 91 1008.0
20260509014019 11 258 0.0 0.0 0.00 0.03 0.03 90 1007.9
20260509013516 12 258 0.0 0.0 0.00 0.03 0.03 90 1007.9
20260509013011 12 258 0.0 0.0 0.00 0.03 0.03 89 1007.8
20260509012508 12 258 0.0 0.0 0.00 0.03 0.03 89 1007.8
20260509012005 12 258 0.0 0.0 0.00 0.03 0.03 87 1007.9
20260509011503 12 258 0.0 0.0 0.00 0.03 0.03 86 1007.7
20260509011000 12 258 0.0 0.0 0.00 0.03 0.03 86 1007.8
20260509010458 13 258 0.0 0.0 0.00 0.03 0.03 85 1007.8
20260509005954 13 258 0.0 0.0 0.00 0.03 0.03 84 1007.8
20260509005453 13 258 0.0 0.0 0.00 0.03 0.03 83 1007.6
20260509004952 13 258 0.0 0.0 0.00 0.03 0.03 82 1007.5
20260509004449 14 258 0.0 0.0 0.00 0.03 0.03 80 1007.8
20260509003947 14 258 0.0 0.0 0.00 0.03 0.03 80 1007.7
20260509003445 15 258 0.0 0.0 0.00 0.03 0.03 79 1007.4
20260509002941 15 258 0.0 0.0 0.00 0.03 0.03 79 1007.5
20260509002439 15 258 0.0 0.0 0.00 0.03 0.03 78 1007.5
20260509001936 15 258 0.0 0.0 0.00 0.03 0.03 77 1007.4
20260509001433 15 257 0.0 0.0 0.00 0.03 0.03 76 1007.5
20260509000929 15 257 0.0 1.6 0.00 0.03 0.03 76 1007.2
20260509000428 15 257 0.0 0.0 0.00 0.03 0.03 75 1007.4
20260508235923 16 274 0.0 1.6 0.00 0.03 0.03 74 1007.5
20260508235421 16 237 1.6 3.2 0.00 0.03 0.03 74 1007.6
20260508234917 16 168 4.8 4.8 0.00 0.03 0.03 72 1007.4
20260508234415 16 232 1.6 3.2 0.00 0.03 0.03 71 1007.4
20260508233912 16 240 0.0 1.6 0.00 0.03 0.03 69 1007.7
20260508233412 16 243 1.6 1.6 0.00 0.03 0.03 68 1007.6
20260508232908 17 256 4.8 4.8 0.00 0.03 0.03 65 1007.6
20260508232404 17 261 0.0 1.6 0.00 0.03 0.03 63 1007.8
20260508231902 17 266 0.0 1.6 0.00 0.03 0.03 64 1007.6
20260508231359 17 317 0.0 1.6 0.00 0.03 0.03 66 1007.5
20260508230856 17 273 1.6 3.2 0.00 0.03 0.03 66 1007.9
20260508230352 17 270 1.6 3.2 0.00 0.03 0.03 66 1007.6
20260508225850 17 236 1.6 3.2 0.00 0.03 0.03 66 1007.6
20260508225346 17 268 0.0 3.2 0.00 0.03 0.03 66 1007.7
20260508224844 17 197 1.6 3.2 0.00 0.03 0.03 63 1007.7
20260508224341 18 153 4.8 8.0 0.00 0.03 0.03 58 1007.9
20260508223839 18 262 1.6 3.2 0.00 0.03 0.03 60 1007.7
20260508223336 18 229 3.2 4.8 0.00 0.03 0.03 60 1007.7
20260508222833 18 283 1.6 3.2 0.00 0.03 0.03 62 1007.9
20260508222331 18 10 0.0 1.6 0.00 0.03 0.03 60 1007.8
20260508221827 18 180 3.2 3.2 0.00 0.03 0.03 59 1007.7
20260508221322 18 253 3.2 4.8 0.00 0.03 0.03 58 1007.9
20260508220819 18 265 1.6 1.6 0.00 0.03 0.03 56 1007.7
20260508220316 18 51 1.6 3.2 0.00 0.03 0.03 58 1007.8
20260508215813 18 202 4.8 8.0 0.00 0.03 0.03 59 1007.7
20260508215309 18 313 1.6 3.2 0.00 0.03 0.03 59 1007.9
20260508214806 19 177 3.2 3.2 0.00 0.03 0.03 62 1007.8
20260508214303 18 251 1.6 3.2 0.00 0.03 0.03 62 1007.8
20260508213759 18 276 1.6 4.8 0.00 0.03 0.03 60 1007.8
20260508213256 18 244 1.6 3.2 0.00 0.03 0.03 62 1008.0
20260508212753 18 253 1.6 4.8 0.00 0.03 0.03 64 1007.7
20260508212249 17 239 0.0 3.2 0.00 0.03 0.03 65 1008.0
20260508211745 17 305 1.6 3.2 0.00 0.03 0.03 65 1007.9
20260508211241 17 194 4.8 8.0 0.00 0.03 0.03 63 1008.1
20260508210739 17 220 1.6 4.8 0.00 0.03 0.03 65 1008.1
20260508210235 17 270 1.6 3.2 0.00 0.03 0.03 65 1008.2
20260508205732 17 252 3.2 3.2 0.00 0.03 0.03 65 1008.2
20260508205229 17 195 4.8 4.8 0.00 0.03 0.03 67 1008.3
20260508204725 17 207 3.2 3.2 0.00 0.03 0.03 64 1008.3
20260508204222 17 268 1.6 4.8 0.00 0.03 0.03 65 1008.4
20260508203717 17 333 1.6 3.2 0.00 0.03 0.03 66 1008.1
20260508203214 16 206 4.8 4.8 0.00 0.03 0.03 64 1008.5
20260508202710 16 223 1.6 4.8 0.00 0.03 0.03 65 1008.6
20260508202207 16 210 3.2 4.8 0.00 0.03 0.03 67 1008.5
20260508201704 16 263 1.6 3.2 0.00 0.03 0.03 65 1008.6
20260508201201 16 215 3.2 8.0 0.00 0.03 0.03 66 1008.8
20260508200658 16 206 1.6 4.8 0.00 0.03 0.03 66 1008.5
20260508200153 17 226 6.4 9.7 0.00 0.03 0.03 64 1008.8
20260508195650 17 82 3.2 4.8 0.00 0.03 0.03 64 1009.0
20260508195147 17 158 3.2 9.7 0.00 0.03 0.03 65 1009.0
20260508194643 17 266 1.6 1.6 0.00 0.03 0.03 65 1009.0
20260508194140 17 297 3.2 12.9 0.00 0.03 0.03 62 1008.8
20260508193637 17 273 3.2 8.0 0.00 0.03 0.03 65 1009.0
20260508193134 18 219 6.4 9.7 0.00 0.03 0.03 63 1009.1
20260508192631 17 5 6.4 9.7 0.00 0.03 0.03 65 1009.2
20260508192128 16 267 3.2 8.0 0.00 0.03 0.03 69 1009.4
20260508191625 16 231 3.2 4.8 0.00 0.03 0.03 71 1009.3
20260508191121 16 226 1.6 3.2 0.00 0.03 0.03 69 1009.4
20260508190619 16 175 3.2 3.2 0.00 0.03 0.03 70 1009.4
20260508190115 16 233 3.2 4.8 0.00 0.03 0.03 71 1009.4
20260508185612 16 278 0.0 4.8 0.00 0.03 0.03 71 1009.6
20260508185109 17 225 3.2 4.8 0.00 0.03 0.03 64 1009.9
20260508184607 17 131 3.2 3.2 0.00 0.03 0.03 68 1009.9
20260508184104 17 287 1.6 3.2 0.00 0.03 0.03 67 1009.8
20260508183600 17 8 3.2 8.0 0.00 0.03 0.03 63 1009.8
20260508183056 17 208 4.8 4.8 0.00 0.03 0.03 64 1009.8
20260508182553 16 236 1.6 3.2 0.00 0.03 0.03 62 1010.0
20260508182050 17 289 1.6 3.2 0.00 0.03 0.03 64 1010.2
20260508181550 17 281 0.0 4.8 0.00 0.03 0.03 64 1010.0
20260508181048 17 300 1.6 3.2 0.00 0.03 0.03 62 1009.8
20260508180544 17 213 3.2 4.8 0.00 0.03 0.03 61 1010.1
20260508180041 17 287 4.8 4.8 0.00 0.03 0.03 61 1010.0
20260508175537 17 309 3.2 3.2 0.00 0.03 0.03 62 1010.2
20260508175035 17 256 0.0 3.2 0.00 0.03 0.03 60 1010.4
20260508174533 16 255 3.2 4.8 0.00 0.03 0.03 59 1010.4
20260508174029 17 339 3.2 4.8 0.00 0.03 0.03 55 1010.4
20260508173526 16 259 1.6 8.0 0.00 0.03 0.03 58 1010.5
20260508173022 17 279 3.2 4.8 0.00 0.03 0.03 53 1010.7
20260508172519 17 241 1.6 9.7 0.00 0.03 0.03 56 1010.9
20260508172015 16 297 1.6 3.2 0.00 0.03 0.03 52 1011.2
20260508171512 17 286 1.6 4.8 0.00 0.03 0.03 51 1011.0
20260508171009 17 261 6.4 9.7 0.00 0.03 0.03 53 1011.1
20260508170506 16 262 1.6 1.6 0.00 0.03 0.03 54 1011.0
20260508170003 16 295 1.6 3.2 0.00 0.03 0.03 54 1011.2
20260508165501 17 253 1.6 4.8 0.00 0.03 0.03 55 1011.1
20260508164956 16 213 4.8 4.8 0.00 0.03 0.03 57 1011.2
20260508164454 16 2 1.6 3.2 0.00 0.03 0.03 57 1011.3
20260508163950 16 303 0.0 3.2 0.00 0.03 0.03 58 1011.4
20260508163448 16 279 1.6 8.0 0.00 0.03 0.03 59 1011.5
20260508162944 16 54 3.2 4.8 0.00 0.03 0.03 62 1011.5
20260508162442 15 263 3.2 4.8 0.00 0.03 0.03 64 1011.8
20260508161938 15 293 3.2 3.2 0.00 0.03 0.03 65 1011.6
20260508161435 15 182 4.8 4.8 0.00 0.03 0.03 64 1011.7
20260508160932 15 294 0.0 3.2 0.00 0.03 0.03 63 1011.8
20260508160432 15 257 1.6 3.2 0.00 0.03 0.03 63 1012.0
20260508155927 15 271 1.6 3.2 0.00 0.03 0.03 63 1011.8
20260508155425 15 18 1.6 3.2 0.00 0.03 0.03 63 1011.8
20260508154921 15 236 1.6 4.8 0.00 0.03 0.03 68 1011.7
20260508154419 15 329 1.6 3.2 0.00 0.03 0.03 69 1011.8
20260508153915 15 258 1.6 3.2 0.00 0.03 0.03 70 1011.8
20260508153412 13 342 1.6 3.2 0.00 0.03 0.03 72 1011.8
20260508152908 13 238 1.6 3.2 0.00 0.03 0.03 72 1011.9
20260508152405 14 241 1.6 3.2 0.00 0.03 0.03 71 1011.8
20260508151902 13 273 0.0 1.6 0.00 0.03 0.03 74 1011.9
20260508151359 13 275 1.6 3.2 0.00 0.03 0.03 77 1011.8
20260508150855 13 263 1.6 3.2 0.00 0.03 0.03 76 1011.7
20260508150352 13 283 4.8 4.8 0.00 0.03 0.03 77 1012.0
20260508145848 13 207 1.6 3.2 0.00 0.03 0.03 78 1011.9
20260508145344 13 308 0.0 1.6 0.00 0.03 0.03 80 1011.6
20260508144841 13 280 1.6 1.6 0.00 0.03 0.03 80 1011.7
20260508144339 12 296 0.0 1.6 0.00 0.03 0.03 80 1011.9
20260508143836 13 242 3.2 4.8 0.00 0.03 0.03 83 1011.8
20260508143333 12 206 1.6 4.8 0.00 0.03 0.03 83 1012.1
20260508142830 12 282 1.6 1.6 0.00 0.03 0.03 89 1012.1
20260508142326 11 254 1.6 3.2 0.00 0.03 0.03 91 1012.2
20260508141823 11 250 1.6 1.6 0.00 0.03 0.03 94 1012.3
20260508141320 11 229 3.2 3.2 0.00 0.03 0.03 97 1012.4
20260508140818 10 276 0.0 3.2 0.00 0.03 0.03 99 1012.2
20260508140314 10 243 1.6 3.2 0.00 0.03 0.03 99 1012.2
20260508135810 10 255 1.6 3.2 0.00 0.03 0.03 99 1012.3
20260508135307 10 292 1.6 3.2 0.00 0.03 0.03 99 1012.3
20260508134802 10 243 0.0 3.2 0.00 0.03 0.03 99 1012.5
20260508134300 9 257 1.6 1.6 0.00 0.03 0.03 99 1012.4
20260508133756 9 280 0.0 1.6 0.00 0.03 0.03 99 1012.6
20260508133254 9 298 0.0 1.6 0.00 0.03 0.03 99 1012.2
20260508132751 9 344 0.0 0.0 0.00 0.03 0.03 99 1012.2
20260508132249 9 345 0.0 1.6 0.00 0.03 0.03 99 1012.4
20260508131744 9 343 0.0 1.6 0.00 0.03 0.03 99 1012.3
20260508131241 8 344 0.0 0.0 0.00 0.03 0.03 99 1012.3
20260508130737 8 345 0.0 1.6 0.00 0.03 0.03 99 1012.3
20260508130235 8 345 0.0 0.0 0.00 0.03 0.03 99 1012.3
20260508125730 8 345 0.0 1.6 0.00 0.03 0.03 99 1012.4
20260508125227 8 345 0.0 1.6 0.00 0.03 0.03 99 1012.5
20260508124725 7 345 0.0 0.0 0.00 0.03 0.03 99 1012.4
20260508124222 8 345 0.0 0.0 0.00 0.03 0.03 99 1012.3
20260508123720 7 345 0.0 0.0 0.00 0.03 0.03 99 1012.2
20260508123218 7 345 0.0 0.0 0.00 0.03 0.03 99 1012.4
20260508122714 7 345 0.0 0.0 0.00 0.03 0.03 99 1012.4
20260508122211 7 345 0.0 0.0 0.00 0.03 0.03 99 1012.5
20260508121709 7 345 0.0 0.0 0.00 0.03 0.03 99 1012.3
20260508121207 6 345 0.0 0.0 0.00 0.03 0.03 99 1012.2
20260508120704 6 345 0.0 0.0 0.00 0.03 0.03 99 1012.1
20260508120202 6 345 0.0 0.0 0.00 0.03 0.03 99 1012.1
20260508115659 6 345 0.0 0.0 0.00 0.03 0.03 99 1012.2
20260508115156 6 345 0.0 0.0 0.00 0.03 0.03 99 1012.0
20260508114653 5 345 0.0 0.0 0.00 0.03 0.03 99 1012.2
20260508114149 5 345 0.0 0.0 0.00 0.03 0.03 99 1011.9
20260508113646 5 345 0.0 0.0 0.00 0.03 0.03 99 1011.9
20260508113145 5 345 0.0 0.0 0.00 0.03 0.03 99 1011.9
20260508112640 4 345 0.0 0.0 0.00 0.03 0.03 99 1011.8
20260508112138 4 345 0.0 0.0 0.00 0.03 0.03 99 1012.0
20260508111634 4 345 0.0 0.0 0.00 0.03 0.03 99 1012.2
20260508111132 4 345 0.0 0.0 0.00 0.03 0.03 99 1012.0
20260508110629 4 345 0.0 0.0 0.00 0.03 0.03 99 1012.0
20260508110125 4 345 0.0 0.0 0.00 0.03 0.03 99 1012.0
20260508105620 4 345 0.0 0.0 0.00 0.03 0.03 99 1011.9
20260508105117 4 345 0.0 0.0 0.00 0.03 0.03 99 1011.8
20260508104615 4 345 0.0 0.0 0.00 0.03 0.03 99 1011.5
20260508104111 4 345 0.0 0.0 0.00 0.03 0.03 99 1011.7
20260508103609 4 345 0.0 0.0 0.00 0.03 0.03 99 1011.9
20260508103106 4 345 0.0 0.0 0.00 0.03 0.03 99 1011.9
20260508102603 5 345 0.0 0.0 0.00 0.03 0.03 99 1011.7
20260508102101 5 345 0.0 0.0 0.00 0.03 0.03 99 1011.7
20260508101558 5 345 0.0 0.0 0.00 0.03 0.03 99 1011.9
20260508101055 5 345 0.0 0.0 0.00 0.03 0.03 99 1011.8
20260508100553 5 345 0.0 0.0 0.00 0.03 0.03 99 1011.8
20260508100050 5 345 0.0 0.0 0.00 0.03 0.03 99 1011.7
20260508095547 5 345 0.0 0.0 0.00 0.03 0.03 99 1011.7
20260508095044 5 345 0.0 0.0 0.00 0.03 0.03 99 1011.7
20260508094541 5 345 0.0 0.0 0.00 0.03 0.03 99 1011.9
20260508094038 4 345 0.0 0.0 0.00 0.03 0.03 99 1011.7
20260508093534 4 345 0.0 0.0 0.00 0.03 0.03 99 1011.8
20260508093032 4 345 0.0 0.0 0.00 0.03 0.03 99 1012.0
20260508092529 4 345 0.0 0.0 0.00 0.03 0.03 99 1011.8
20260508092029 3 345 0.0 0.0 0.00 0.03 0.03 99 1011.8
20260508091525 3 345 0.0 0.0 0.00 0.03 0.03 99 1011.9
20260508091022 3 345 0.0 0.0 0.00 0.03 0.03 99 1011.8
20260508090520 3 345 0.0 0.0 0.00 0.03 0.03 99 1011.8
20260508090016 3 345 0.0 0.0 0.00 0.03 0.03 99 1011.7
20260508085513 3 345 0.0 0.0 0.00 0.03 0.03 99 1011.8
20260508085010 3 345 0.0 0.0 0.00 0.03 0.03 99 1011.8
20260508084507 3 345 0.0 0.0 0.00 0.03 0.03 99 1011.8
20260508084004 3 345 0.0 0.0 0.00 0.03 0.03 99 1012.0
20260508083501 3 345 0.0 0.0 0.00 0.03 0.03 99 1011.9
20260508082956 3 345 0.0 0.0 0.00 0.03 0.03 99 1011.8
20260508082453 3 345 0.0 0.0 0.00 0.03 0.03 99 1012.0
20260508081951 4 345 0.0 0.0 0.00 0.03 0.03 99 1011.7
20260508081448 4 345 0.0 0.0 0.00 0.03 0.03 99 1011.7
20260508080944 4 345 0.0 0.0 0.00 0.03 0.03 99 1011.7
20260508080443 4 345 0.0 0.0 0.00 0.03 0.03 99 1011.9
20260508075939 4 345 0.0 0.0 0.00 0.03 0.03 99 1011.8
20260508075436 4 345 0.0 0.0 0.00 0.03 0.03 99 1012.0
20260508074933 4 345 0.0 0.0 0.00 0.03 0.03 99 1011.9
20260508074431 4 345 0.0 0.0 0.00 0.03 0.03 99 1011.9
20260508073927 4 345 0.0 0.0 0.00 0.03 0.03 99 1012.0
20260508073425 5 345 0.0 0.0 0.00 0.03 0.03 99 1011.8
20260508072922 5 345 0.0 0.0 0.00 0.03 0.03 99 1012.0
20260508072418 5 345 0.0 0.0 0.00 0.03 0.03 99 1011.9
20260508071916 5 345 0.0 0.0 0.00 0.03 0.03 99 1011.8
20260508071414 5 345 0.0 0.0 0.00 0.03 0.03 99 1012.0
20260508070911 5 345 0.0 0.0 0.00 0.03 0.03 99 1012.0
20260508070409 5 345 0.0 0.0 0.00 0.03 0.03 99 1012.0
20260508065906 5 345 0.0 0.0 0.00 0.03 0.03 99 1012.0
20260508065404 5 345 0.0 0.0 0.00 0.03 0.03 99 1011.9
20260508064902 5 345 0.0 0.0 0.00 0.03 0.03 99 1012.0
20260508064359 5 345 0.0 0.0 0.00 0.03 0.03 99 1012.1
20260508063857 5 345 0.0 0.0 0.00 0.03 0.03 99 1012.1
20260508063354 5 345 0.0 0.0 0.00 0.03 0.03 99 1012.2
20260508062851 5 345 0.0 0.0 0.00 0.03 0.03 99 1012.0
20260508062349 5 345 0.0 0.0 0.13 0.03 0.03 99 1012.0
20260508061846 5 345 0.0 0.0 0.13 0.03 0.03 99 1012.0
20260508061343 5 345 0.0 0.0 0.00 0.00 0.00 99 1012.1
20260508060839 5 345 0.0 0.0 0.00 0.00 0.00 99 1012.0
20260508060338 5 345 0.0 0.0 0.00 0.00 0.00 99 1012.1
20260508055832 5 345 0.0 1.6 0.00 0.00 0.00 99 1012.2
20260508055330 5 345 0.0 0.0 0.00 0.00 0.00 99 1012.2
20260508054826 5 347 1.6 1.6 0.00 0.00 0.00 99 1012.3
20260508054324 5 343 0.0 0.0 0.00 0.00 0.00 99 1012.2
20260508053821 5 343 0.0 0.0 0.00 0.00 0.00 99 1012.1
20260508053318 5 329 0.0 1.6 0.00 0.00 0.00 99 1012.1
20260508052815 5 329 0.0 0.0 0.00 0.00 0.00 99 1012.1
20260508052312 5 329 0.0 0.0 0.00 0.00 0.00 99 1012.3
20260508051809 5 329 0.0 0.0 0.00 0.00 0.00 99 1012.3
20260508051304 5 329 0.0 0.0 0.00 0.00 0.00 99 1012.1
20260508050801 5 329 0.0 0.0 0.00 0.00 0.00 99 1012.5
20260508050258 5 329 0.0 0.0 0.00 0.00 0.00 99 1012.3
20260508045753 5 329 0.0 0.0 0.00 0.00 0.00 99 1012.3
20260508045251 5 329 0.0 0.0 0.00 0.00 0.00 99 1012.4
20260508044749 5 329 0.0 0.0 0.00 0.00 0.00 99 1012.5
20260508044246 5 329 0.0 0.0 0.00 0.00 0.00 99 1012.3
20260508043741 5 329 0.0 0.0 0.00 0.00 0.00 99 1012.1